Theta_e
311 311 311 310 310 310 309 307 305 304 302 301 299 298 297 297 296 296 295 295 295 295 295 295 296 296 295 295 295 295 295 296 295 295 295 295 295 295 296 297 300 302 303 304 304 304 305 305 304 303 303 304 304 303 304 302 302 302 303 303 303 303 304 303 304 304 302 302 304 302 300 302 302 303 303 302 301 303 307 315 323 326 326 326 327
311 310 310 310 309 307 305 303 302 301 299 298 297 297 296 296 296 295 295 295 295 295 295 296 296 296 295 295 295 295 295 295 295 295 295 296 296 296 296 298 301 303 303 304 304 304 304 304 304 303 303 303 302 302 302 301 301 301 301 302 302 302 302 302 302 303 302 302 303 302 302 303 304 302 302 303 304 304 304 306 313 320 324 325 326
310 310 309 309 307 304 302 301 299 298 298 297 297 296 296 295 295 295 295 295 295 295 295 295 295 295 295 295 295 295 295 295 295 295 295 296 296 297 298 300 302 303 303 304 304 303 304 303 303 303 302 301 301 300 299 299 299 299 299 300 301 301 301 301 301 302 302 302 302 303 303 303 304 303 304 306 307 308 308 307 308 311 316 322 325
310 309 308 306 304 302 301 299 298 297 297 296 296 296 295 295 295 295 296 296 295 295 295 295 295 295 295 295 295 295 295 295 295 295 295 295 296 297 299 301 303 304 303 303 303 303 303 303 302 302 301 301 300 299 298 298 298 298 298 298 299 300 300 300 301 301 301 301 302 303 303 303 304 304 305 307 307 308 310 311 312 312 312 315 321
309 308 306 303 302 301 299 298 297 297 296 296 295 295 294 295 296 296 296 295 295 295 295 295 295 295 295 295 294 295 294 295 295 295 295 295 296 298 299 301 303 303 303 303 303 302 302 302 301 301 300 300 299 298 298 297 297 297 298 298 299 299 299 299 300 300 301 301 301 302 302 303 304 304 305 306 307 308 308 309 312 314 313 311 315
308 306 304 302 301 299 298 297 296 296 296 295 295 294 295 295 296 296 296 296 295 295 294 295 295 294 295 294 294 295 294 295 295 294 295 294 295 298 300 301 303 303 303 303 302 302 302 301 301 300 299 299 298 297 297 297 297 297 297 298 298 298 298 299 299 300 300 300 300 301 301 302 302 303 304 305 306 306 307 308 309 313 316 316 317
306 304 303 302 301 299 298 297 296 295 295 295 294 294 295 295 295 295 296 296 296 296 295 294 294 294 294 294 294 294 294 295 294 294 295 294 296 300 302 302 303 303 302 302 302 301 301 300 300 299 299 298 297 297 297 297 296 296 296 297 297 297 297 298 298 299 299 299 299 300 300 300 301 302 302 303 304 305 306 308 309 310 312 314 315
307 305 303 302 301 299 297 297 296 295 294 294 294 295 295 295 295 294 295 295 295 295 295 295 295 294 294 294 294 294 294 295 294 294 295 294 297 302 303 302 303 303 302 302 301 301 300 300 300 299 298 298 297 297 297 297 296 296 296 296 296 296 297 297 298 298 298 298 299 299 299 300 300 300 301 301 302 303 304 305 306 306 307 307 308
306 305 303 302 300 298 297 297 296 296 296 295 295 295 295 295 295 294 294 294 294 295 295 296 296 295 294 294 294 294 294 294 294 294 295 294 297 301 303 302 302 302 301 301 301 300 299 299 299 298 298 297 297 297 297 296 295 295 296 296 296 296 297 297 297 298 298 298 298 299 299 299 299 300 300 300 301 302 302 302 303 305 306 306 308
306 305 303 302 300 299 298 298 298 298 298 297 296 295 294 294 294 294 293 294 294 294 294 295 296 296 294 294 294 294 294 294 294 294 295 294 295 300 302 302 302 301 301 300 300 299 299 299 298 298 298 297 297 297 297 296 295 295 296 296 296 296 297 297 297 297 298 298 298 298 298 298 299 299 299 300 300 301 301 301 302 303 304 306 307
305 304 303 303 302 302 301 301 300 298 298 297 297 296 295 294 294 293 293 294 293 294 294 294 296 295 294 293 294 294 293 294 294 294 295 295 295 298 301 301 301 301 300 300 300 299 299 298 298 298 298 297 297 297 296 295 295 296 296 296 296 297 297 297 297 297 297 297 297 298 298 298 298 299 299 299 300 300 300 301 301 302 303 304 305
305 304 304 304 303 302 301 301 300 299 298 297 296 296 295 294 294 293 293 293 293 294 294 294 296 296 295 293 293 294 293 294 294 294 294 295 295 298 301 301 300 301 300 300 300 299 299 298 298 298 298 297 297 296 295 295 296 296 296 297 297 297 297 297 297 297 297 297 297 297 298 298 298 298 298 299 299 299 299 299 300 300 301 302 304
304 304 304 303 302 301 301 301 300 299 297 296 296 296 296 296 296 294 293 293 293 293 293 294 295 296 296 295 293 293 293 294 294 294 294 295 295 298 300 300 300 300 300 299 299 299 299 298 297 297 297 297 296 296 295 296 296 296 297 297 297 297 297 297 297 297 297 297 297 297 297 297 297 297 297 298 297 297 297 298 298 299 300 301 302
305 304 303 302 301 301 300 299 298 298 297 297 298 298 298 298 298 297 296 295 294 294 293 293 294 295 296 295 293 293 294 293 294 294 294 295 295 298 300 301 300 300 300 299 299 299 298 297 297 297 297 296 296 295 295 296 296 296 296 297 297 297 297 297 297 297 297 297 297 297 297 297 296 296 296 296 296 296 296 296 297 297 298 299 300
304 303 302 301 301 300 300 299 300 300 300 300 299 299 298 299 299 299 298 297 296 295 293 293 293 294 296 296 294 293 293 293 293 294 294 294 295 298 300 300 300 300 299 299 299 299 298 297 297 296 296 296 295 295 295 295 295 296 296 296 296 296 296 296 296 296 297 297 297 297 297 296 296 296 296 295 295 295 295 296 296 296 296 297 298
303 301 301 301 301 301 301 301 301 301 300 300 300 299 299 299 299 300 299 298 297 295 294 293 293 292 294 296 295 293 292 293 293 293 294 294 295 298 299 299 300 300 299 299 299 298 298 297 296 296 295 294 295 295 295 295 295 296 296 296 296 296 296 296 296 296 296 296 297 297 297 296 296 295 295 295 295 295 295 295 295 295 296 296 296
302 302 302 302 302 302 301 301 301 301 300 300 300 300 300 300 300 300 300 299 299 298 296 294 293 292 292 295 296 294 292 293 293 293 294 294 295 297 298 298 299 299 299 298 298 298 298 297 296 295 294 294 294 294 294 294 294 295 296 296 296 296 296 296 295 295 296 296 297 297 296 296 295 295 295 295 295 295 295 295 295 295 296 296 296
303 303 303 303 302 301 301 301 301 301 301 300 300 300 300 301 300 300 300 300 300 299 298 296 294 293 292 292 294 294 293 292 293 293 293 293 293 296 297 297 298 299 299 298 298 298 297 297 296 294 293 293 294 294 294 294 294 295 296 296 296 296 295 295 295 296 296 296 296 296 296 296 295 295 295 295 295 295 295 295 295 295 296 296 297
304 304 303 302 302 301 301 301 301 301 301 300 300 301 301 301 301 301 300 300 300 299 299 298 297 296 294 292 292 293 293 292 292 292 293 293 292 294 295 295 296 298 299 297 297 298 297 297 296 294 292 293 293 293 294 294 294 295 295 295 295 295 295 295 295 296 296 296 296 296 296 296 295 295 295 294 294 294 294 295 295 296 296 296 297
303 303 302 302 301 301 301 301 301 301 300 300 301 301 301 301 301 301 300 300 300 300 300 299 299 299 298 296 293 292 292 292 292 292 292 292 292 293 294 294 294 296 298 298 297 297 297 297 296 294 292 293 293 294 294 295 294 295 295 295 295 295 295 295 295 295 296 296 296 296 296 295 295 294 294 294 294 294 294 294 295 296 297 297 298
303 302 302 302 301 301 301 301 301 301 300 301 301 301 301 301 301 301 300 300 300 300 301 300 300 300 299 299 297 295 294 293 292 292 292 292 292 292 293 293 293 295 297 298 297 297 297 297 296 294 292 292 293 294 295 295 295 295 295 295 295 295 295 295 295 295 296 296 296 296 296 295 295 294 294 294 294 294 294 295 295 296 297 298 299
302 302 302 301 301 301 301 301 301 301 300 301 301 301 301 301 301 301 301 300 301 301 301 300 300 300 300 300 299 298 296 295 293 292 292 292 292 292 292 292 292 293 296 297 297 296 296 296 295 293 292 292 293 294 295 295 295 295 295 295 295 295 295 295 295 295 295 296 296 296 296 295 295 294 294 294 294 295 296 297 297 298 298 298 300
302 301 301 301 301 302 301 300 300 301 301 301 301 301 301 301 301 301 301 302 302 301 301 300 300 300 300 299 300 299 299 297 294 291 291 291 291 291 292 292 292 292 294 296 296 296 295 295 294 293 293 293 292 293 294 295 295 295 295 295 295 295 295 295 295 295 295 295 295 296 296 295 295 294 294 293 294 295 297 299 299 300 300 300 301
301 301 301 301 302 301 300 300 300 301 301 302 302 302 302 301 301 301 302 302 301 301 301 300 300 300 299 299 300 299 300 299 296 292 291 291 291 291 291 291 292 292 293 296 296 294 294 294 294 294 294 294 293 293 294 295 295 295 295 295 295 295 295 295 295 295 295 295 295 295 296 295 295 295 293 294 295 296 298 300 302 303 303 302 303
301 302 302 302 302 301 300 300 301 301 302 302 301 302 302 302 302 302 302 302 301 301 300 300 299 299 299 299 300 299 299 299 297 293 291 291 291 291 291 291 291 292 294 295 294 293 294 295 295 295 294 294 294 294 294 294 295 295 295 295 295 295 295 294 295 294 294 295 295 295 295 295 295 295 294 294 296 296 298 302 304 305 306 306 305
302 302 302 301 301 301 301 301 301 301 302 302 302 302 302 302 302 302 302 302 301 301 300 299 299 299 299 299 299 299 299 298 295 292 291 291 291 291 291 291 291 292 294 294 293 293 295 296 295 295 295 295 295 294 294 294 294 295 295 295 295 295 295 294 294 294 294 294 295 295 295 295 295 295 294 295 296 297 298 300 303 305 307 308 308
302 302 302 301 301 301 302 302 302 301 302 303 302 301 302 302 302 302 302 302 302 301 300 299 299 299 299 298 298 298 298 297 294 291 291 291 291 291 291 291 291 292 293 293 293 294 295 296 295 296 295 295 295 295 294 294 294 294 295 295 295 295 294 294 294 294 294 294 294 295 295 295 296 295 295 295 296 297 297 298 300 302 305 307 307
302 302 302 301 302 302 302 302 301 301 302 302 301 301 301 301 302 302 302 302 302 302 301 300 299 299 299 297 297 298 297 295 292 291 291 291 291 291 291 290 291 292 292 293 294 295 295 296 296 296 295 295 295 295 294 294 294 294 294 295 295 294 294 294 294 294 294 294 294 295 295 295 296 296 295 295 295 296 297 298 299 299 301 303 304
302 302 302 302 302 302 302 301 301 302 302 302 302 301 301 302 302 301 298 297 298 299 300 298 296 298 299 297 294 295 295 293 291 291 291 291 291 291 291 290 291 291 292 293 294 295 296 296 296 295 295 295 295 294 294 293 293 293 293 294 295 294 294 294 294 294 294 294 294 295 295 295 296 296 295 295 294 295 297 298 299 299 300 301 301
302 302 302 302 302 303 302 301 302 303 302 302 303 302 300 301 302 299 296 294 293 294 295 294 293 294 297 295 292 292 292 292 291 291 291 291 291 291 290 290 291 291 293 294 295 295 296 296 296 295 295 295 295 294 293 293 293 292 292 293 294 294 294 294 294 294 294 294 294 295 295 295 296 296 296 295 294 295 296 297 298 299 299 300 300
303 303 303 302 302 303 302 301 302 304 302 301 302 300 298 298 297 295 294 293 293 292 293 293 292 292 293 293 292 291 292 291 291 291 291 291 291 291 291 291 291 292 293 294 295 296 296 296 296 296 296 295 295 294 293 293 292 292 292 292 293 294 294 294 294 294 294 294 294 294 295 295 296 296 296 295 294 294 295 296 297 297 298 298 299
303 303 303 303 302 302 303 302 302 303 303 302 302 300 298 296 295 294 294 293 293 292 292 292 292 292 292 292 292 292 292 292 291 291 291 291 291 291 291 292 292 293 294 295 295 296 296 296 296 296 296 295 295 294 294 293 292 292 291 291 292 294 294 294 294 294 294 294 294 294 295 295 296 296 296 296 294 294 294 295 295 295 295 296 297
304 303 304 303 301 301 303 303 302 302 303 302 302 301 301 299 298 298 297 295 295 295 294 292 292 292 292 292 292 292 292 292 291 291 291 291 291 291 292 293 294 294 295 295 295 296 296 296 296 296 295 295 295 294 294 294 293 292 291 291 292 293 293 293 293 294 294 294 294 294 294 295 296 296 297 296 295 294 294 294 294 294 294 294 295
304 303 303 303 301 301 303 303 302 302 302 301 301 301 301 302 301 301 300 299 299 299 297 296 294 292 292 292 292 292 292 292 291 292 291 291 291 292 294 295 295 295 295 295 295 296 296 296 295 295 295 294 294 294 294 294 293 292 290 290 291 292 292 293 293 293 294 294 294 294 294 295 295 296 296 297 296 295 294 294 294 294 294 294 294
304 303 303 303 302 301 303 303 302 302 302 301 300 301 301 301 302 301 301 301 301 301 300 299 298 295 293 293 292 292 292 292 291 292 292 291 292 293 295 296 296 296 296 296 295 296 296 296 295 295 295 294 294 294 294 293 293 292 291 290 290 290 291 292 292 293 294 294 294 294 294 295 295 296 296 296 297 296 295 294 294 294 294 294 294
304 303 303 303 302 301 302 303 302 302 302 301 300 300 301 301 300 300 300 300 300 300 301 301 300 299 297 295 294 293 292 292 292 292 292 291 292 294 296 297 296 296 296 296 295 295 296 296 295 295 295 294 294 294 293 293 293 293 291 290 290 289 289 290 291 292 293 294 294 294 294 294 295 295 296 296 297 297 296 295 295 295 294 294 294
304 304 303 302 302 302 302 302 302 302 301 301 301 301 301 300 300 300 300 300 300 300 300 300 301 300 298 298 298 296 293 293 293 294 293 293 293 295 297 297 297 296 296 296 296 295 295 296 295 295 295 295 294 294 293 293 292 292 291 290 290 289 288 289 290 291 292 294 294 294 294 294 295 295 295 296 297 297 297 297 296 296 295 295 294
304 304 303 301 301 302 302 302 302 301 300 300 301 301 301 300 300 300 300 301 300 300 299 299 300 299 298 299 299 298 296 296 296 296 296 295 295 296 297 297 297 296 296 296 296 295 295 295 295 295 295 294 294 294 293 293 292 292 291 290 290 289 288 288 289 290 292 293 294 294 294 294 294 295 295 296 296 296 297 297 297 297 296 296 295
303 303 302 300 300 301 302 301 301 301 300 300 300 301 300 300 300 300 300 300 300 299 299 299 300 299 299 300 299 298 297 298 298 297 297 296 296 296 297 297 297 297 296 296 296 296 295 295 295 295 294 294 294 294 294 293 292 292 291 290 289 289 289 288 288 289 291 292 293 294 294 294 294 294 295 295 296 296 297 297 297 297 297 296 296
303 302 301 299 299 301 301 301 301 300 299 299 300 300 300 300 300 300 300 300 300 300 300 300 300 299 299 300 299 298 297 297 297 297 297 297 297 297 297 297 297 297 297 296 296 296 295 295 294 294 294 294 294 294 294 294 293 292 292 291 289 288 288 288 288 288 290 291 292 293 293 294 294 294 294 295 295 296 296 296 297 297 296 296 296
302 302 301 299 299 300 301 300 300 300 299 298 299 299 300 300 299 299 299 299 299 299 299 299 299 299 299 299 298 297 294 294 295 297 298 297 297 297 297 297 297 297 297 296 296 296 295 294 294 294 293 293 293 294 294 294 293 292 292 292 290 288 288 288 289 288 289 290 292 293 293 293 294 294 294 294 295 295 296 296 296 296 296 296 296
302 302 301 299 299 299 300 300 300 300 299 298 299 299 300 300 299 299 299 299 299 299 299 299 299 299 299 298 298 296 293 293 295 297 297 297 297 297 297 297 297 297 297 296 296 296 296 294 293 293 293 293 293 294 294 294 294 293 293 292 291 289 288 288 289 289 288 289 290 291 292 293 293 294 294 294 294 295 295 296 296 296 296 296 296
301 301 301 300 298 298 299 300 300 300 300 300 299 299 299 300 300 299 299 299 299 298 298 298 299 299 299 298 298 296 294 294 294 296 297 298 298 298 297 297 297 297 297 296 296 296 295 294 293 293 292 292 293 293 294 294 294 293 293 292 291 290 289 288 288 289 289 289 289 290 291 292 293 293 294 294 294 294 295 295 295 295 296 296 296
300 301 301 300 298 298 299 299 299 299 299 299 299 299 299 299 299 299 299 299 299 298 298 298 298 298 298 298 298 297 296 296 296 297 298 298 298 297 297 297 297 297 297 296 296 296 295 294 294 293 293 293 292 292 293 294 294 294 293 293 292 290 289 289 289 288 288 289 289 289 289 290 292 293 293 294 294 294 294 295 295 295 295 295 296
300 300 300 300 298 298 298 299 299 299 299 299 299 299 299 299 299 299 299 299 299 299 298 298 298 298 298 298 298 298 298 298 298 298 298 298 297 297 297 297 297 297 297 296 296 295 295 294 294 294 294 294 293 293 293 294 294 294 294 293 293 291 289 289 289 289 288 288 289 289 288 289 290 291 292 293 293 293 293 294 294 295 295 295 295
300 300 300 300 299 299 298 299 299 299 299 299 299 299 299 299 299 299 299 299 299 299 299 299 298 298 298 298 298 298 298 299 298 298 298 297 297 297 297 297 297 297 296 296 295 295 294 294 294 295 295 295 294 294 293 294 294 295 294 294 293 292 290 289 290 289 289 288 288 288 288 288 289 289 290 291 293 293 293 293 294 294 294 295 295
301 300 300 300 300 299 299 299 300 300 300 300 300 300 300 300 299 299 299 299 299 299 299 299 299 299 299 299 299 298 298 298 298 298 298 297 297 297 297 297 296 296 296 295 295 294 294 294 294 295 295 295 295 295 294 294 294 295 294 294 293 292 290 290 290 290 289 289 289 288 288 288 288 289 289 289 291 292 293 293 293 293 294 294 294
301 301 300 300 300 300 300 300 300 300 300 300 300 300 300 300 300 300 300 299 299 299 299 299 299 299 299 299 299 299 299 299 298 298 298 298 297 297 297 297 297 296 295 295 294 294 294 294 294 295 295 295 295 295 295 295 294 294 295 294 294 292 291 291 291 290 290 290 289 289 288 288 288 289 288 288 289 291 292 292 293 293 293 293 293
302 301 301 301 301 301 301 300 300 300 300 300 301 301 300 300 300 300 300 300 300 299 299 299 299 299 299 299 299 299 299 299 299 299 298 298 298 298 297 297 297 296 296 295 294 293 293 294 294 295 295 295 295 296 296 295 295 295 294 294 294 293 292 292 291 291 291 290 290 290 289 289 289 289 288 288 288 289 290 291 292 293 293 293 293
302 302 302 302 301 301 301 301 301 301 301 301 301 301 300 300 300 300 300 300 300 300 300 300 299 299 299 299 299 299 299 299 299 299 299 298 298 298 298 297 297 297 296 296 294 293 293 293 293 294 294 295 295 295 296 296 296 295 295 294 294 293 293 293 292 292 291 291 291 290 290 290 289 289 289 288 288 288 289 289 291 292 293 293 293
301 301 302 302 301 301 301 301 301 301 301 301 301 301 300 300 300 300 300 300 300 300 300 300 300 299 299 299 299 299 299 299 299 299 299 299 299 298 298 298 298 297 297 296 296 295 294 293 293 293 293 294 294 295 295 296 296 295 295 295 294 294 294 294 293 293 292 292 291 291 291 291 290 290 289 289 289 288 288 288 290 291 293 293 293
Wind_Speed
9 9 9 10 11 13 14 16 18 18 17 17 16 16 16 15 15 15 15 16 16 16 17 17 17 17 18 18 18 18 18 18 19 18 18 18 18 18 18 17 15 15 14 15 15 15 14 14 15 17 17 17 17 16 16 18 19 18 18 19 19 19 20 22 24 30 35 33 32 36 38 37 34 32 31 33 33 32 31 32 31 28 26 26 27
10 10 11 11 13 17 18 19 19 17 17 17 16 16 16 16 16 15 15 16 17 17 17 17 17 17 18 18 18 18 18 18 18 18 17 17 18 18 17 16 16 15 14 15 15 15 14 14 15 16 16 15 15 16 16 18 19 19 19 19 20 20 20 22 25 28 34 36 34 34 36 35 35 36 35 32 32 33 31 31 32 33 32 28 26
12 12 13 14 16 19 19 19 18 18 17 17 16 16 16 16 16 17 16 16 17 18 17 17 17 17 18 18 17 17 17 17 17 17 17 17 17 17 17 16 15 14 14 15 15 15 15 15 15 17 17 16 16 17 18 20 21 22 23 22 21 22 21 22 24 27 31 35 34 33 34 35 35 36 35 32 31 31 31 31 31 31 33 33 31
14 14 15 18 19 19 19 18 18 18 17 17 16 16 16 17 17 17 17 16 16 17 17 17 17 17 17 17 16 16 16 17 17 17 17 18 17 17 16 15 14 14 14 15 15 15 15 15 16 17 17 16 18 20 21 23 24 23 24 25 23 23 24 23 24 26 29 33 34 33 32 33 34 33 32 32 31 29 29 30 30 30 30 32 34
15 16 18 20 20 19 19 18 18 17 17 16 16 17 17 18 17 16 16 16 17 16 17 17 17 17 16 16 16 16 16 16 17 17 18 17 16 16 15 14 13 13 14 14 14 15 15 15 16 17 17 17 19 21 21 23 24 23 23 25 25 24 25 25 25 26 27 30 33 33 31 30 31 31 29 30 32 31 30 29 28 30 31 31 32
17 19 20 20 20 19 19 18 18 17 17 17 17 17 18 17 16 16 16 16 17 16 17 17 16 16 16 15 15 15 16 17 17 18 18 16 16 16 15 14 13 13 13 13 14 15 15 15 16 17 17 18 19 20 21 22 23 24 25 26 27 26 27 27 26 26 27 29 30 32 32 30 30 31 29 28 30 32 33 31 28 26 27 27 26
19 20 20 20 19 19 19 18 18 17 17 17 18 18 18 17 16 16 16 16 16 16 16 17 16 16 16 15 16 15 16 17 17 18 17 16 16 15 13 12 12 13 13 13 14 15 15 15 16 16 16 18 20 20 20 22 25 28 30 30 29 28 27 27 26 26 27 28 28 30 31 31 30 30 30 29 29 29 29 30 29 27 27 27 27
20 20 20 20 19 19 19 18 17 17 18 18 18 18 17 16 16 16 16 17 17 16 16 16 16 16 16 16 16 16 17 17 17 18 17 17 16 12 11 12 12 12 13 13 13 14 15 15 15 16 18 20 24 24 23 27 32 34 33 31 30 27 26 25 26 27 28 28 29 30 31 31 30 30 30 30 30 28 27 28 32 33 33 33 33
20 19 20 20 19 19 19 18 18 18 18 18 17 17 17 17 16 16 17 17 17 16 15 15 15 15 16 16 16 17 17 18 19 18 18 18 15 11 10 12 12 12 12 13 13 14 16 16 16 18 21 24 27 27 27 32 36 35 32 31 28 25 25 26 27 27 29 30 30 30 31 31 31 31 31 31 31 32 31 31 33 33 33 33 33
20 19 19 19 19 19 19 18 17 17 17 17 17 17 17 17 17 17 17 17 17 17 16 16 15 14 15 16 16 17 18 18 19 18 18 17 14 11 10 11 11 11 13 13 13 15 17 16 17 19 21 24 25 25 28 33 35 34 31 29 26 26 28 30 29 29 30 31 31 31 32 33 33 33 33 33 33 34 34 32 33 33 32 33 33
20 19 19 19 18 17 17 17 16 16 17 17 16 16 17 17 17 17 17 17 17 17 16 16 15 14 15 16 17 17 18 18 17 17 17 15 14 13 10 10 10 11 13 13 14 16 16 17 19 19 20 23 23 26 32 36 36 34 30 27 25 26 29 30 31 30 30 31 31 31 32 35 35 35 35 34 34 34 34 33 33 33 32 33 34
20 19 19 18 17 17 17 17 16 16 16 16 16 16 16 17 17 17 18 17 18 17 16 16 15 14 15 17 18 17 17 17 17 17 16 15 15 15 11 10 11 11 13 13 13 15 16 18 20 19 21 23 24 29 35 37 36 33 29 25 24 25 27 28 29 30 29 30 32 32 33 36 36 36 35 35 35 36 36 35 35 34 35 35 35
20 19 19 18 18 18 17 17 16 16 16 16 16 16 15 15 15 16 17 18 18 17 17 16 15 14 14 16 18 18 18 18 17 17 17 16 17 16 11 11 12 11 13 13 14 15 17 19 20 20 22 23 25 31 35 36 36 32 25 23 24 26 28 27 26 27 28 28 29 31 33 33 35 36 35 35 37 39 38 38 36 35 36 37 37
20 20 19 19 19 18 17 16 16 16 15 15 15 14 14 13 13 14 15 16 17 17 17 17 16 15 13 14 18 19 19 18 18 17 17 16 18 17 11 10 12 12 13 14 14 15 16 19 20 21 23 23 26 31 33 35 36 30 23 24 25 27 29 28 26 28 29 27 26 29 32 32 33 35 34 34 36 38 39 39 39 38 39 40 40
20 20 20 19 18 17 16 16 15 14 14 14 13 13 13 12 11 11 12 13 15 16 17 17 17 16 14 13 17 20 20 19 18 18 17 15 17 16 12 10 11 12 12 13 14 14 17 20 20 21 22 24 27 30 32 35 35 27 24 26 27 27 28 27 28 30 31 31 31 34 37 36 36 37 36 36 38 40 41 40 40 41 43 44 46
21 21 20 19 17 17 16 16 15 14 14 14 13 13 12 11 10 10 10 12 13 15 16 17 17 17 15 13 15 19 21 20 19 19 18 16 16 16 13 11 11 11 13 14 13 14 17 19 19 21 23 24 26 29 31 34 33 27 25 28 29 28 27 27 30 33 34 36 37 38 39 41 41 40 39 40 43 45 44 43 42 43 44 45 45
21 20 19 18 17 17 16 16 15 14 14 13 12 12 11 10 9 9 9 9 10 11 13 16 17 18 17 14 13 17 21 21 20 21 20 18 17 16 14 13 11 11 13 15 14 14 18 20 20 22 24 24 26 28 30 33 33 27 25 29 31 30 29 30 34 38 38 37 37 37 39 42 43 42 40 40 42 43 43 45 44 42 43 45 43
20 19 18 18 18 17 16 16 15 14 13 13 12 11 10 9 9 8 8 8 9 9 9 12 14 16 18 18 15 16 19 21 21 21 21 20 19 18 16 15 13 11 13 16 15 14 18 21 22 23 23 23 24 26 29 33 32 27 27 32 33 32 35 39 40 42 40 35 33 37 42 44 44 42 39 38 39 39 40 44 43 40 42 46 44
20 19 19 19 18 17 16 16 15 14 14 13 12 10 9 8 8 7 7 7 7 7 7 8 10 12 15 18 19 18 19 21 22 22 21 21 21 20 19 18 15 11 13 17 16 15 17 19 21 23 23 22 23 25 29 33 33 30 30 33 35 36 41 43 43 45 44 39 39 44 48 49 47 44 40 36 36 36 37 39 39 39 42 44 42
20 20 19 19 18 17 17 16 15 14 14 13 11 10 9 8 8 7 7 7 6 6 6 6 7 8 9 13 17 19 20 21 22 22 21 21 21 21 21 21 19 13 12 16 17 16 17 17 19 22 24 23 24 25 27 31 32 31 32 35 38 41 45 45 42 43 46 46 47 50 52 52 52 49 43 37 35 35 34 34 34 36 40 41 40
21 20 20 19 19 18 17 17 16 14 14 13 11 9 9 9 8 8 7 7 7 6 5 5 4 5 5 7 12 16 19 20 21 21 20 20 21 21 21 21 21 17 13 15 17 17 17 18 20 23 25 26 27 26 26 28 31 32 32 35 38 40 43 46 44 43 47 51 52 53 55 55 55 55 50 43 39 35 31 29 28 32 36 38 39
22 21 20 20 19 18 17 17 16 15 13 12 11 9 9 9 8 7 7 6 6 6 5 4 4 4 4 4 7 11 16 19 20 20 19 18 19 19 20 20 20 19 15 14 16 18 17 19 22 25 27 29 30 28 26 27 29 31 32 36 38 37 39 43 43 43 49 55 54 55 57 58 58 59 56 50 43 34 26 23 22 27 33 37 39
22 21 20 20 19 18 18 18 16 15 13 12 10 9 8 8 7 6 5 4 4 4 4 4 4 4 4 4 5 7 11 15 19 20 18 18 18 19 19 20 20 19 16 13 16 18 18 19 24 28 29 31 32 31 28 27 28 30 33 35 37 35 36 41 45 48 53 55 55 57 60 61 60 60 59 54 47 36 25 19 18 22 31 38 41
22 22 20 20 19 18 18 18 16 14 13 11 10 9 8 7 6 5 4 3 3 3 3 3 4 4 5 4 5 6 7 10 16 19 18 19 19 20 21 22 21 20 17 14 17 19 17 20 26 30 31 31 32 32 29 27 28 30 32 35 35 34 36 40 47 52 54 55 57 59 61 61 59 60 60 55 47 39 28 17 12 13 23 33 37
23 22 20 20 19 18 17 16 14 14 13 11 9 8 7 7 5 4 4 4 3 3 3 3 4 4 5 5 5 6 6 7 12 16 18 19 20 21 22 22 22 22 18 16 19 18 16 19 26 30 30 30 30 30 28 28 28 29 31 34 34 34 37 40 45 50 52 54 57 59 61 61 58 59 60 54 47 42 31 17 10 7 14 25 29
22 21 20 19 19 18 17 15 14 13 12 10 9 8 6 6 5 4 4 3 3 3 2 3 4 4 4 5 5 5 6 7 11 15 17 18 19 20 21 21 22 22 18 17 18 16 16 20 23 26 29 29 27 27 27 28 28 28 29 32 33 34 37 39 43 47 49 52 55 58 60 60 58 59 61 54 48 46 39 29 25 18 2 14 19
22 21 20 19 19 18 16 15 14 13 11 10 9 8 7 6 5 5 4 3 2 2 2 2 3 3 4 5 5 5 5 7 11 15 16 17 19 20 21 22 23 23 20 19 18 17 19 22 22 22 26 28 26 26 27 28 28 28 28 30 33 35 37 39 42 44 46 50 53 56 60 61 59 61 62 57 51 49 45 40 37 33 23 11 11
22 21 20 19 18 17 16 16 14 12 11 10 9 7 7 6 5 5 5 5 4 3 2 2 2 3 4 4 4 4 5 8 11 14 16 18 19 20 21 22 22 22 22 20 19 19 20 20 20 21 23 25 26 26 27 27 28 28 28 29 32 35 36 39 42 43 44 48 52 55 59 62 61 61 62 60 55 51 47 43 41 39 35 28 22
22 21 20 19 18 17 16 16 14 12 11 11 9 9 10 9 7 6 7 7 8 7 5 3 2 3 2 3 3 4 5 8 11 14 15 17 19 20 21 21 20 20 21 21 20 21 20 19 19 21 23 24 26 27 29 29 28 29 29 29 31 34 36 39 42 43 44 48 51 54 58 61 61 61 61 60 57 54 49 45 43 40 37 35 33
22 21 20 18 18 17 16 15 14 12 12 12 10 11 14 14 10 7 5 6 6 6 5 4 3 4 3 2 4 5 6 8 10 12 13 15 17 18 18 18 18 19 21 21 21 20 18 18 20 21 22 24 26 28 29 29 29 30 30 29 31 33 36 39 42 42 43 46 49 52 55 58 59 60 60 59 57 55 51 48 45 42 39 37 35
21 21 19 18 18 17 15 15 14 12 12 12 10 10 13 13 10 6 4 4 5 4 4 3 2 3 3 2 4 5 7 8 10 11 12 13 15 16 15 15 18 20 21 21 21 19 17 18 20 21 21 23 25 27 28 29 29 30 30 29 30 32 35 39 41 41 41 45 48 50 52 56 58 58 58 57 56 54 52 50 48 46 43 39 36
21 20 19 18 19 18 15 14 14 13 12 13 12 11 11 10 7 4 2 3 3 2 2 2 2 2 3 3 4 5 7 8 9 10 11 13 14 14 14 16 19 21 21 19 18 17 17 18 19 20 21 23 24 25 27 28 29 30 30 30 30 31 33 37 39 39 40 43 47 48 50 53 55 55 55 55 54 53 53 52 50 50 48 45 42
20 20 19 18 19 18 15 14 14 13 12 13 12 11 12 10 8 5 2 1 1 1 1 1 1 2 2 3 4 5 6 7 8 9 11 12 12 13 14 17 19 21 20 18 16 16 16 17 19 20 21 22 23 24 25 26 27 29 30 30 30 30 31 34 37 38 39 41 45 47 47 49 51 52 53 53 52 50 51 51 50 50 51 50 49
19 19 19 18 18 18 15 14 14 13 12 13 12 11 11 10 9 7 5 5 5 5 4 3 3 3 3 3 4 5 6 7 8 9 10 12 12 12 15 18 18 18 18 17 15 15 16 17 18 19 20 21 22 23 24 25 26 27 30 30 29 29 31 33 37 39 38 38 43 45 45 46 49 49 50 51 51 49 48 49 50 50 51 51 50
19 19 19 18 17 17 15 14 14 14 12 12 12 11 10 9 9 8 7 6 6 6 7 8 7 5 4 4 5 5 5 6 7 8 10 11 11 12 15 16 15 14 14 14 14 15 15 16 18 19 19 20 22 22 23 24 24 26 29 30 29 30 31 33 36 38 36 36 40 43 43 44 47 48 47 49 50 48 47 47 48 49 48 48 48
19 18 19 19 17 16 15 14 13 13 12 12 12 11 10 10 9 8 8 7 6 5 7 9 10 9 8 8 7 7 7 7 7 7 8 9 11 12 14 13 13 13 13 13 14 15 15 15 16 18 18 20 21 21 22 24 24 25 27 28 28 30 32 33 35 37 35 34 37 40 41 42 45 45 45 47 49 48 46 44 45 46 45 45 45
19 18 20 20 17 15 15 14 13 13 13 12 11 11 10 10 10 9 8 8 7 6 6 7 8 11 12 11 9 9 9 8 7 9 10 11 12 13 12 10 11 12 12 12 13 14 15 14 16 17 17 19 20 21 21 23 24 24 27 28 29 31 32 32 33 35 34 33 35 37 39 40 42 43 43 44 46 46 45 43 43 44 44 44 44
19 17 19 21 18 15 14 14 14 15 14 12 11 11 11 10 10 9 9 8 8 8 7 7 8 9 11 11 11 11 11 10 10 11 12 12 12 11 9 9 10 10 11 12 12 13 14 14 15 16 16 18 19 20 20 22 24 24 26 29 31 32 33 33 33 34 33 32 33 34 36 37 38 39 41 41 42 43 43 41 41 41 42 43 44
19 17 19 21 19 15 14 14 14 14 15 13 11 11 11 10 10 10 9 9 9 9 8 8 8 8 8 8 9 10 10 9 9 9 9 9 9 8 8 8 9 9 10 11 11 12 13 13 14 15 16 17 18 18 19 21 23 24 26 29 31 33 33 33 33 33 32 32 32 32 34 35 35 35 37 39 39 40 40 40 39 38 38 39 40
18 17 20 22 19 15 14 14 13 13 14 14 12 11 11 11 11 10 9 9 9 9 9 9 9 8 8 9 9 8 7 8 9 8 8 8 9 8 8 8 9 9 9 10 10 11 12 13 13 14 15 16 17 18 18 19 22 24 25 28 31 33 32 32 32 31 31 31 30 31 32 33 32 33 34 36 37 37 37 37 38 37 35 34 35
18 17 20 22 20 16 14 14 13 13 14 14 13 12 12 12 12 11 10 10 9 9 10 10 9 9 11 13 14 13 12 10 9 9 9 9 9 9 8 9 9 9 9 10 10 10 11 12 13 13 15 16 17 17 17 18 20 22 23 26 30 32 32 31 30 31 30 30 29 29 31 31 30 31 31 32 33 34 34 34 35 36 35 33 32
18 17 20 22 21 17 15 14 13 13 13 13 13 12 12 12 12 12 12 11 10 10 10 10 9 10 14 16 16 15 13 11 10 10 10 9 9 9 9 9 9 9 9 9 10 10 11 12 13 14 15 15 16 16 17 17 19 20 21 23 28 31 32 30 30 30 30 29 28 27 28 28 28 28 29 29 30 31 32 32 32 33 34 33 31
18 17 17 20 22 19 16 14 14 13 13 14 13 13 13 13 12 12 12 12 12 11 12 11 10 11 14 16 15 14 13 11 10 10 10 10 10 10 10 9 9 9 9 9 10 9 11 13 14 14 14 14 14 15 15 15 16 18 18 20 25 29 30 29 29 29 29 28 28 27 26 26 26 25 26 26 27 27 29 30 30 30 30 30 30
18 17 16 18 20 20 17 15 14 14 13 14 14 13 13 14 13 13 13 13 13 13 13 12 11 11 12 15 16 15 13 11 10 10 11 11 11 11 11 10 10 10 10 11 10 10 11 13 14 14 14 14 14 14 14 13 14 16 16 17 21 26 28 28 28 29 28 27 27 27 25 24 23 23 23 24 24 24 25 26 27 28 28 28 28
18 17 16 17 18 19 18 16 15 14 14 14 14 14 14 14 14 14 14 13 13 13 13 13 13 12 12 13 14 13 11 10 10 11 11 12 12 12 11 11 11 11 11 12 12 12 12 13 13 13 14 14 14 14 13 12 12 14 14 14 18 23 26 25 25 26 26 25 25 26 25 24 22 21 20 20 21 21 22 23 23 24 25 26 25
17 17 17 17 17 18 18 16 15 15 14 14 14 14 14 15 15 15 15 14 14 14 14 14 14 14 14 14 14 13 12 12 12 12 12 12 13 12 12 11 12 12 12 13 13 14 14 14 13 13 14 15 15 14 14 12 11 12 12 12 15 20 23 23 22 24 25 24 24 24 24 23 22 20 19 18 18 17 18 19 20 20 20 21 21
17 16 16 17 17 17 17 16 16 16 15 15 15 15 15 15 15 15 15 15 15 15 15 14 15 15 15 15 15 15 14 14 13 13 13 13 13 13 13 13 14 14 14 14 14 14 14 14 14 15 15 15 15 16 15 12 11 11 11 10 13 18 20 20 20 21 22 22 22 23 23 22 21 20 19 17 16 15 15 16 17 17 17 16 16
17 17 16 16 16 16 16 16 16 16 16 16 16 16 16 15 15 15 15 15 16 16 16 16 16 16 16 16 16 15 15 15 14 14 14 14 14 14 15 15 16 16 16 16 15 15 16 15 15 15 15 15 15 17 16 14 12 11 10 11 14 17 18 17 17 18 19 20 20 21 22 21 20 19 19 18 16 14 13 13 14 15 15 14 13
16 17 17 17 17 17 16 16 16 17 17 17 17 17 17 17 17 17 16 16 16 16 17 17 17 17 17 17 17 16 16 16 16 15 15 15 15 15 15 15 16 17 18 19 18 17 18 18 17 16 16 16 15 16 16 15 13 11 10 12 15 17 17 16 16 16 17 17 18 18 19 20 20 19 19 18 16 14 12 10 11 13 14 13 12
16 16 16 17 17 17 17 17 17 17 17 17 17 17 18 18 18 18 18 18 18 17 17 17 17 17 17 17 17 17 17 17 16 16 16 17 17 17 17 17 17 18 20 22 22 20 19 20 20 19 19 18 17 16 16 16 14 12 12 14 16 16 15 15 15 15 15 16 17 16 16 17 19 19 18 17 17 16 13 10 9 12 13 12 11
18 17 17 17 17 18 18 18 18 18 18 18 18 18 18 18 19 19 19 19 19 19 18 18 18 18 18 18 18 18 18 18 17 17 17 18 19 19 19 20 20 20 22 23 25 24 22 21 21 21 21 20 19 18 18 17 15 14 14 15 15 16 15 14 14 14 14 14 15 14 14 16 17 17 17 17 16 16 15 11 9 11 13 12 10
Wind_Direction
110 109 109 110 107 106 110 116 120 120 117 114 111 108 106 104 101 99 100 97 92 90 88 83 77 72 70 66 63 60 56 54 53 51 49 48 47 46 46 42 35 30 24 18 15 16 17 13 7 5 7 4 359 357 351 347 349 348 342 336 333 329 325 321 312 308 314 317 316 318 323 324 322 320 317 312 309 306 296 283 274 271 274 276 270
113 112 113 110 109 114 119 121 120 117 114 113 110 108 108 105 102 99 99 98 95 90 86 83 78 73 70 66 62 59 55 53 52 50 48 47 45 43 42 39 33 26 21 17 14 15 14 12 8 4 2 1 360 357 351 350 352 348 343 339 333 330 327 322 316 311 312 316 317 317 321 321 317 317 321 319 313 311 306 295 281 273 270 270 269
118 115 115 115 116 121 122 120 119 117 115 113 111 110 108 105 104 102 97 95 94 90 84 80 78 74 69 64 61 58 53 51 50 48 47 47 46 42 37 33 26 20 19 16 13 13 12 11 9 2 358 358 358 358 355 354 354 351 348 343 333 329 328 322 318 314 311 313 314 315 317 317 316 318 319 317 314 313 309 305 298 287 276 268 266
121 121 122 122 123 124 122 120 120 117 115 114 112 111 109 106 103 100 96 91 88 86 83 78 74 71 68 64 59 56 51 48 47 44 44 45 46 40 32 27 21 16 17 14 12 12 11 10 8 2 358 358 355 355 356 354 352 350 348 343 333 328 326 323 319 315 312 311 311 312 313 313 313 315 315 314 313 311 307 305 304 298 288 275 265
130 129 129 128 127 126 123 122 121 118 116 114 112 112 110 106 101 96 94 90 85 82 80 77 72 68 65 62 57 54 49 46 43 41 41 41 44 41 31 25 20 15 16 14 11 12 11 10 7 1 359 359 355 353 353 352 350 346 342 337 331 326 323 320 318 315 312 310 310 310 311 311 311 311 313 313 312 311 308 305 301 298 297 289 272
137 134 132 129 127 125 123 123 122 119 118 115 114 112 107 104 101 97 92 87 84 80 76 75 71 66 62 57 55 51 47 44 40 38 37 35 41 41 28 23 20 14 16 14 10 12 11 9 4 359 360 359 356 353 350 349 348 344 340 335 330 326 323 320 319 316 313 310 310 311 312 312 312 311 313 312 310 309 308 308 306 299 298 298 285
137 134 132 130 128 127 126 125 123 121 119 117 114 110 105 102 100 98 94 89 85 80 77 73 68 64 58 52 50 47 46 44 38 36 34 30 39 38 20 18 18 12 15 14 11 12 10 7 3 359 0 359 353 350 348 346 344 342 340 336 332 328 325 323 320 317 315 314 312 311 311 312 312 310 311 311 308 307 308 308 306 297 290 291 290
136 135 135 133 131 130 128 126 124 122 120 117 113 108 105 102 99 96 94 91 87 82 77 71 65 60 55 49 45 42 42 41 37 36 31 27 37 35 14 17 20 12 13 13 11 11 8 6 2 358 359 355 351 349 345 340 339 340 339 337 333 329 326 324 322 320 318 315 313 312 311 311 311 310 310 311 310 307 305 304 301 297 292 289 289
138 138 138 136 134 133 130 126 123 120 117 114 111 108 107 103 99 95 92 89 86 82 78 74 67 59 52 48 43 39 37 36 33 32 28 25 33 35 17 17 19 11 11 13 10 8 8 4 358 359 359 353 351 349 340 334 336 338 339 338 335 332 329 326 323 320 318 315 313 313 311 309 309 310 310 309 307 304 303 302 299 298 297 293 290
140 139 139 137 134 131 126 122 120 118 116 113 111 109 108 104 100 96 92 88 85 82 78 76 71 61 52 46 42 38 35 34 30 27 24 21 26 38 27 14 17 14 9 12 9 5 6 2 356 358 357 352 349 341 332 335 341 342 341 342 342 338 333 329 324 320 317 315 313 311 310 307 306 307 306 304 302 301 301 301 298 296 297 295 290
141 140 138 134 130 127 124 123 122 120 117 114 110 107 105 102 99 95 91 86 84 81 76 74 71 61 52 46 43 39 34 33 30 26 25 20 26 44 36 12 16 15 8 11 9 3 2 358 357 357 352 351 347 335 333 341 345 344 345 348 347 340 332 326 321 319 316 312 310 308 306 303 303 304 302 301 301 299 298 297 294 293 292 290 289
141 139 136 133 131 130 127 125 123 120 120 118 115 110 104 100 96 92 89 84 81 78 74 71 68 59 48 43 43 40 35 33 29 26 28 25 33 50 42 17 18 13 7 10 5 1 359 354 356 354 350 352 345 335 340 346 346 346 349 348 343 339 335 327 321 319 316 311 309 306 304 302 302 301 300 299 298 296 295 293 289 287 284 282 281
142 140 137 136 134 132 130 129 129 129 129 125 118 111 105 100 94 89 86 82 78 76 71 68 67 61 48 39 40 40 36 33 29 28 30 29 36 46 37 17 19 12 8 8 3 2 359 354 355 353 353 354 345 340 344 348 349 351 348 343 341 341 340 335 328 324 320 315 309 307 308 306 301 299 300 298 296 294 293 290 286 283 280 277 276
144 142 140 138 136 134 134 134 132 129 125 118 112 110 108 102 93 86 83 79 76 72 68 64 63 64 53 36 35 37 35 33 30 29 30 31 38 42 29 12 14 10 7 7 6 2 351 349 355 355 353 353 348 347 349 350 352 352 344 340 340 339 338 336 332 331 329 325 317 313 315 313 304 301 300 297 294 292 289 287 285 281 278 275 274
146 145 142 139 137 136 135 132 128 126 125 121 119 117 112 105 98 92 86 81 76 71 67 62 58 60 57 40 32 33 33 32 31 30 30 33 40 38 27 14 10 7 5 4 5 359 346 347 355 354 351 352 351 352 353 353 355 352 343 342 340 336 337 335 330 330 332 333 330 325 325 322 315 309 304 298 293 289 286 283 280 278 277 275 273
148 146 143 139 138 138 136 134 133 133 130 127 124 120 114 106 101 97 90 83 77 70 65 62 57 56 58 49 33 30 32 32 31 32 31 33 40 36 23 15 12 6 4 1 359 357 349 349 353 352 351 353 354 355 356 358 358 351 344 344 341 338 338 335 332 335 337 338 337 333 329 327 323 315 307 300 294 290 288 284 278 276 275 273 272
149 147 144 142 143 142 140 140 138 135 132 130 128 124 118 112 106 100 94 86 78 69 62 59 57 54 55 57 44 31 32 33 31 33 32 32 39 38 22 13 14 8 2 359 357 355 349 345 347 350 350 351 354 357 1 2 1 354 348 346 344 341 340 340 341 344 343 339 335 332 330 329 327 319 308 299 294 291 288 283 278 276 272 268 267
151 149 147 147 146 145 144 144 141 138 137 135 131 126 120 117 112 102 95 89 81 77 66 55 53 50 48 53 52 38 33 32 31 33 32 29 35 38 25 15 15 10 2 359 357 356 350 343 342 345 348 349 352 359 6 5 0 356 352 348 345 343 344 347 348 348 344 336 331 332 336 338 335 325 313 302 293 289 285 279 276 273 268 264 262
153 151 149 148 148 147 148 148 145 143 143 139 133 128 124 120 113 102 93 88 82 82 77 62 55 49 42 43 47 43 34 30 30 30 28 26 29 35 29 19 16 12 1 358 356 355 353 345 339 343 349 349 350 360 8 5 359 356 352 346 343 343 346 350 350 347 345 341 338 339 342 343 340 334 323 309 299 295 287 279 275 269 262 260 258
152 151 149 149 150 150 151 150 147 147 147 142 134 129 127 120 113 108 101 96 94 89 82 70 58 52 40 32 36 40 35 28 25 25 24 22 25 32 32 22 17 15 4 355 352 351 352 348 341 345 353 354 352 358 4 1 358 355 349 344 343 344 347 349 347 344 345 345 344 345 345 343 342 341 335 324 317 311 297 282 273 264 257 256 255
152 151 150 151 152 152 152 151 150 150 148 143 136 133 130 121 113 110 103 96 95 89 81 73 56 47 40 21 19 28 30 25 21 21 20 19 20 28 32 24 17 16 7 353 349 349 348 346 345 350 359 2 360 0 1 358 355 352 346 344 345 345 347 347 345 344 348 349 348 347 347 344 344 346 344 339 334 325 308 291 276 261 252 251 251
152 151 152 153 153 153 154 153 152 150 149 144 139 135 131 125 120 117 109 94 86 81 76 76 63 38 35 21 4 9 15 15 15 17 17 16 18 24 28 23 16 14 6 348 345 347 343 342 347 355 3 4 3 2 360 355 352 349 346 345 346 346 345 344 343 346 351 351 349 349 349 347 347 348 348 347 345 336 316 297 279 258 246 242 244
152 152 154 154 154 156 157 156 154 152 150 147 142 138 132 126 122 119 113 97 82 76 67 61 58 42 34 30 11 4 2 359 4 11 14 15 18 22 25 21 15 12 7 350 341 340 340 347 354 359 1 1 0 0 357 351 347 347 347 346 346 346 345 342 343 348 352 351 350 351 352 350 349 349 350 351 352 349 334 313 290 262 246 241 241
153 154 155 155 156 160 161 160 157 153 152 149 146 146 142 132 125 120 119 116 100 85 69 51 50 41 32 27 16 15 8 352 354 3 11 16 17 19 21 19 12 10 9 353 335 332 339 353 360 358 356 355 356 356 352 345 344 346 347 346 346 346 345 342 344 349 352 351 351 352 352 352 350 351 353 356 360 1 354 337 312 276 253 246 243
155 155 157 158 158 160 161 159 158 156 155 152 151 152 151 146 143 135 123 116 101 90 72 52 49 38 30 28 15 11 18 1 350 357 8 15 15 17 19 16 10 11 10 347 330 331 344 357 357 353 352 352 350 348 347 344 345 347 347 347 348 348 346 344 344 347 350 351 351 352 351 351 351 353 357 3 8 10 9 8 7 328 260 247 244
157 157 159 159 158 159 160 159 161 161 157 156 159 159 156 154 156 155 146 134 113 98 82 54 47 37 26 25 18 9 11 0 352 360 10 14 13 16 19 15 11 12 6 344 335 346 3 4 354 347 348 350 348 345 345 346 347 347 348 349 350 349 347 345 344 347 349 350 351 352 351 351 352 356 2 9 14 17 21 29 36 37 356 230 228
159 160 161 160 160 162 163 163 166 164 161 163 166 164 163 161 157 151 144 141 133 108 84 57 49 42 26 17 16 17 10 354 355 5 13 14 13 16 17 15 13 11 4 355 357 9 12 4 353 344 345 348 349 348 347 348 348 348 348 349 350 350 349 346 346 347 348 350 351 352 353 354 355 359 5 12 17 21 27 34 41 49 61 99 150
162 162 163 162 163 166 168 168 167 164 164 167 163 161 167 165 161 167 166 158 157 144 106 76 61 48 27 12 17 20 3 351 360 9 13 13 14 15 15 15 14 12 10 10 16 20 12 359 349 346 348 349 349 350 349 348 348 348 347 348 350 350 349 348 348 349 350 352 353 352 355 358 359 1 6 13 18 23 29 36 42 50 60 72 80
164 165 165 166 168 170 172 172 169 167 169 168 165 172 174 161 155 181 194 181 171 165 156 150 132 104 55 7 23 33 8 359 9 14 13 12 13 14 14 14 12 14 19 21 21 18 9 354 347 349 351 350 349 349 349 348 348 347 347 348 350 351 350 349 349 350 351 353 354 354 356 359 1 3 7 13 19 24 29 35 40 46 56 64 64
166 167 168 171 172 172 173 174 173 173 174 171 174 186 187 178 173 183 189 178 173 171 171 167 133 117 115 27 19 29 19 13 17 18 15 15 14 14 14 13 13 17 22 22 20 14 1 350 351 352 351 350 350 349 349 348 348 348 348 349 350 351 351 351 351 351 353 355 356 356 358 360 2 5 9 14 20 25 30 35 38 42 48 53 56
169 170 172 175 176 174 174 176 175 175 177 175 175 182 187 189 193 197 185 172 172 166 159 155 111 95 100 56 27 27 23 21 22 20 18 18 17 14 14 17 21 23 22 18 15 8 353 347 351 351 349 350 350 348 349 349 348 348 349 349 349 350 351 352 352 353 355 357 358 359 0 2 4 7 10 15 21 26 31 36 39 41 44 47 49
172 173 175 177 178 176 175 177 177 177 178 178 177 174 176 180 186 193 185 167 162 145 127 129 103 77 65 39 25 24 21 19 20 21 21 20 18 16 17 22 22 21 20 17 10 358 348 347 350 349 349 350 349 349 350 350 350 350 349 348 349 350 350 352 353 355 357 359 360 1 2 3 5 8 11 16 23 28 32 37 41 42 44 47 48
175 176 177 178 179 178 176 178 180 180 178 180 181 181 182 184 192 209 238 299 23 10 16 41 44 35 33 29 22 18 17 16 16 17 20 19 16 15 21 24 18 11 12 14 4 350 347 350 350 350 351 350 349 350 351 351 351 351 350 350 350 350 350 352 354 357 360 1 2 3 5 5 7 10 13 17 23 29 33 38 42 44 46 48 49
176 178 178 178 179 180 180 180 182 182 181 182 183 186 188 190 195 212 241 279 299 308 318 330 350 358 358 7 14 10 6 8 9 12 16 15 10 14 23 23 13 4 6 8 358 348 350 352 351 351 352 351 351 351 351 352 353 352 352 352 352 350 351 353 356 358 0 1 3 6 8 8 9 11 13 17 23 30 35 38 43 46 48 49 51
177 179 181 180 181 183 184 183 183 183 184 184 185 188 192 190 189 198 215 244 273 288 292 297 308 324 337 348 360 1 360 1 1 6 12 9 6 17 27 19 4 358 3 1 353 350 352 351 351 352 352 352 352 352 352 353 354 353 354 354 352 352 354 355 357 1 2 1 3 7 10 11 11 13 15 17 22 30 36 40 43 46 48 50 53
178 181 183 182 182 185 186 186 185 185 185 186 187 189 192 193 195 201 208 217 228 240 258 277 291 303 314 325 336 342 345 348 351 359 9 7 9 23 27 9 350 350 356 353 350 352 352 350 351 352 352 352 353 353 353 354 354 354 356 356 354 356 359 358 360 5 6 3 4 8 11 12 13 15 17 18 21 27 36 42 45 47 50 53 56
183 185 186 184 184 186 186 185 188 189 186 186 189 190 192 196 200 205 210 215 218 221 229 245 266 288 302 308 314 323 330 337 345 353 358 0 7 17 15 352 338 344 349 347 347 351 351 350 350 350 350 351 352 352 353 355 354 354 357 359 359 2 4 3 4 9 11 8 5 8 11 12 14 15 18 20 22 25 33 42 47 49 51 54 56
185 187 188 186 184 185 185 185 190 192 189 186 189 193 196 200 204 208 214 217 220 225 230 228 237 265 286 292 296 308 322 335 346 348 346 346 350 353 346 330 328 336 341 342 343 347 348 348 348 349 349 349 350 352 353 354 354 355 357 360 3 7 9 9 9 14 18 14 7 6 9 12 14 16 18 22 23 24 29 38 46 50 53 53 53
187 191 192 187 182 183 185 186 189 191 190 190 194 197 199 203 207 211 218 223 223 228 235 236 237 246 260 269 284 306 322 327 327 326 322 317 318 318 315 316 322 327 332 337 340 342 344 346 346 347 348 348 348 350 351 352 354 356 357 360 5 9 12 12 12 16 20 18 11 6 7 11 13 15 19 22 25 25 27 33 40 47 51 54 56
185 190 194 190 183 182 186 187 187 191 193 194 198 201 203 207 211 214 219 226 229 231 233 236 242 248 242 235 245 268 286 288 287 287 286 286 292 298 302 306 311 316 323 330 334 335 339 342 343 343 344 347 348 347 347 348 352 355 357 359 4 10 13 13 14 17 20 21 17 10 7 9 11 14 18 21 24 26 28 30 34 40 46 53 59
183 189 196 194 187 183 188 189 189 192 195 197 201 206 209 212 216 219 224 229 231 233 236 238 243 247 241 238 248 264 273 272 272 274 275 278 283 288 291 295 299 306 313 319 325 328 330 336 340 341 342 345 346 345 345 346 348 351 354 356 3 10 13 12 15 18 19 21 22 16 10 9 11 13 17 20 23 27 30 31 33 37 41 47 55
185 190 198 198 192 189 192 194 193 196 198 200 205 210 212 216 219 222 228 233 234 236 240 241 241 246 249 252 261 274 276 268 262 263 266 271 275 278 282 287 291 295 300 307 314 319 321 328 336 339 341 345 345 342 342 343 344 347 350 351 358 8 13 11 13 17 18 19 23 21 13 11 13 14 18 22 22 25 29 32 35 37 38 41 47
187 189 193 197 196 194 195 197 198 200 202 205 209 214 216 219 224 226 229 234 236 237 241 241 239 248 257 261 267 277 281 274 265 261 261 265 269 272 276 282 284 285 289 298 305 308 311 320 331 339 343 346 345 341 341 341 340 343 346 346 352 3 10 11 13 16 15 16 21 20 15 12 12 14 19 23 22 23 27 31 34 37 37 37 41
188 188 189 193 195 196 196 199 202 205 207 210 214 218 219 222 227 230 232 235 237 237 238 239 239 243 254 262 270 277 280 272 260 256 258 261 265 268 273 275 276 277 281 287 293 298 304 315 328 338 343 346 348 346 343 339 335 338 343 342 345 355 4 9 13 15 14 14 18 20 17 14 13 14 19 22 22 23 26 28 31 35 37 37 39
187 189 189 189 193 196 197 200 204 207 210 213 216 219 222 224 228 232 234 237 238 238 237 238 239 239 244 255 266 271 269 258 252 255 259 261 263 266 269 270 270 274 278 282 287 294 302 312 324 332 336 342 348 348 344 339 332 334 340 337 336 347 358 5 10 14 14 14 17 20 19 17 15 14 17 21 22 24 27 28 28 31 36 38 40
185 189 192 190 192 196 199 202 206 208 211 215 217 219 224 226 228 232 235 236 238 239 239 239 240 240 241 245 251 255 254 254 256 258 259 261 263 264 265 265 266 268 271 275 281 290 300 310 320 327 332 338 341 341 344 343 331 328 335 333 327 337 350 359 6 11 12 14 18 21 19 17 17 16 17 21 25 29 33 34 30 27 31 36 37
188 190 193 192 194 198 200 204 209 212 214 218 221 222 226 228 229 233 236 236 237 239 240 241 243 244 244 246 247 250 251 253 256 258 260 262 263 262 262 263 266 268 270 274 280 288 296 305 313 320 326 330 331 334 341 343 326 319 326 325 318 328 343 353 360 6 8 10 16 21 18 15 15 17 17 19 23 27 33 38 34 26 25 29 31
192 194 197 197 199 203 205 207 212 215 218 222 225 226 228 231 233 235 237 238 238 239 240 242 244 246 247 248 249 250 252 253 255 257 260 262 264 264 264 264 265 269 274 280 286 291 294 297 301 307 313 319 324 329 336 335 323 316 316 311 311 324 337 345 352 360 4 5 11 18 18 14 14 17 17 15 17 20 24 33 36 29 21 20 25
197 200 203 204 205 209 211 213 216 219 222 225 228 229 230 232 234 237 239 240 242 242 242 243 244 245 247 249 250 250 252 254 255 257 260 264 266 267 267 264 262 265 273 282 289 291 292 295 298 300 304 310 316 322 325 326 323 316 304 300 310 324 333 337 343 351 357 359 4 10 13 12 13 16 18 15 15 15 13 19 33 32 19 12 16
204 205 208 210 212 214 216 219 221 224 226 228 229 232 234 234 236 238 239 241 243 245 245 245 246 246 247 249 250 251 253 254 255 257 262 267 270 271 271 270 267 264 270 281 291 294 292 293 296 296 298 302 307 311 316 321 322 314 303 304 316 326 329 332 337 342 346 352 358 2 6 9 9 11 14 15 15 13 8 9 28 31 17 5 7
211 212 213 215 217 218 220 223 225 227 229 230 232 235 237 238 238 240 240 241 242 244 245 246 248 249 250 251 251 252 254 254 255 258 263 268 271 271 272 273 273 268 266 274 286 293 294 292 292 291 293 296 299 304 310 314 313 308 307 312 319 323 324 328 333 335 337 343 347 350 358 4 3 4 9 12 12 11 8 8 22 25 12 357 356